Wind_Speed
81 82 83 84 86 87 89 90 91 92 94 96 98 100 102 103 104 105 106 106 107 107 106 106 107 108 108 109 109 110 111 112 113 114 115 116 118 119 121 122 122 121 121 119 118 116 113 111 109 107 105 103 102 101 99 98 97 96 96 95 95 95 94 92 90 87 88 91 91 92 96 97 98 100 100 100 102 103 102 101 101 102 102 103 103
83 84 85 87 88 89 90 92 93 94 96 99 100 102 103 104 105 105 106 106 106 106 106 106 107 107 108 109 109 110 111 112 113 115 116 118 119 121 122 122 122 121 120 118 116 113 111 109 107 105 103 102 101 100 98 97 96 95 94 93 93 93 93 91 90 87 85 87 90 90 91 93 94 96 98 98 99 102 103 104 103 101 101 101 102
86 87 88 89 90 91 92 93 94 96 99 100 102 103 104 105 106 106 106 106 106 106 106 107 107 107 108 109 110 111 112 113 114 116 117 119 121 122 122 122 121 120 118 116 113 111 109 107 106 104 102 101 100 99 97 96 94 93 92 92 91 90 91 90 89 87 84 84 87 88 89 90 91 92 94 95 96 98 101 102 104 103 101 100 100
88 89 90 91 92 93 94 95 97 99 100 102 103 104 105 105 106 106 106 106 106 106 106 107 107 108 109 109 111 112 113 114 116 117 120 122 123 123 123 122 120 118 116 113 111 110 108 106 104 103 101 100 99 97 96 94 93 92 90 90 89 88 88 88 87 86 84 82 84 86 87 88 89 89 90 91 93 95 97 99 101 103 103 102 100
90 91 92 93 94 95 96 98 99 101 102 103 104 104 105 105 105 105 105 105 106 106 106 107 108 108 109 110 111 113 114 116 118 120 122 123 124 123 122 121 119 116 113 111 110 108 107 105 103 102 100 99 98 96 94 92 91 90 89 87 87 86 86 86 86 85 83 81 81 82 84 85 86 87 88 88 89 91 94 95 97 99 101 102 101
92 93 95 96 97 98 99 100 101 102 103 104 104 104 104 105 105 105 105 105 106 106 107 107 108 109 110 111 113 114 116 118 121 123 124 125 124 123 121 119 117 114 111 109 108 107 105 103 101 100 99 97 96 94 92 91 89 88 87 86 85 85 84 84 84 83 82 80 79 79 81 83 84 85 87 86 86 87 90 91 93 95 98 100 102
95 96 97 98 99 100 101 102 102 103 104 104 104 104 104 104 105 105 106 106 107 107 107 108 109 110 112 113 115 117 119 122 124 125 126 125 124 122 120 117 115 112 110 108 106 104 102 101 99 98 97 95 93 92 90 88 87 85 84 84 83 83 83 82 82 81 80 79 78 77 77 80 82 83 84 84 84 84 86 87 89 92 94 96 98
97 98 98 99 100 101 102 102 103 104 105 105 104 104 105 105 106 106 107 107 108 108 108 109 111 112 114 116 118 121 123 125 126 127 126 125 123 120 118 116 113 111 108 106 104 102 100 99 97 96 95 93 91 90 88 86 84 83 82 82 81 81 81 81 81 80 79 77 76 75 75 77 79 80 81 82 82 82 82 82 83 88 92 92 94
98 99 100 100 101 102 103 103 104 105 105 105 105 105 106 106 107 108 108 109 109 109 110 111 113 115 117 120 122 125 126 127 128 127 126 123 121 119 116 114 112 110 107 105 103 101 99 97 96 94 92 91 90 88 86 84 82 81 81 80 80 80 79 79 79 78 77 76 74 73 73 74 76 77 78 79 79 79 80 80 79 82 86 89 92
100 101 101 102 103 103 104 104 105 105 105 106 106 106 107 108 109 109 110 110 110 111 112 114 116 119 121 124 126 128 129 129 128 127 124 122 119 117 115 113 111 108 106 104 101 99 98 96 94 92 90 89 87 86 84 82 81 80 79 79 79 79 78 77 77 76 75 74 73 73 72 73 74 75 75 76 77 76 77 78 78 79 82 83 87
102 102 103 104 104 104 105 105 106 106 106 107 107 108 109 110 111 111 111 112 112 114 116 118 120 123 126 129 130 132 132 131 128 126 123 120 118 116 114 113 110 108 105 102 100 98 96 94 92 90 88 87 85 84 82 80 79 78 78 78 78 78 77 76 75 74 73 72 72 72 72 72 73 74 74 74 74 74 74 75 76 78 80 81 83
103 104 104 105 105 105 106 106 107 107 107 108 109 110 111 112 113 113 113 114 115 117 120 122 125 128 130 133 134 135 134 131 128 125 122 119 117 115 114 112 109 107 104 101 98 96 94 92 90 88 87 85 84 82 80 78 78 77 77 77 77 77 76 75 74 73 72 71 71 72 73 72 72 74 75 74 74 74 73 73 74 75 77 79 82
104 104 105 106 106 106 107 107 108 109 109 110 112 113 114 115 115 115 116 117 120 122 125 127 130 133 135 137 137 137 135 132 128 125 122 119 117 115 114 111 108 105 103 100 97 95 92 90 88 86 85 84 82 80 78 77 76 75 75 75 75 75 75 74 73 71 70 70 71 73 74 73 72 73 75 74 73 74 73 73 73 74 75 77 80
104 105 106 106 107 107 108 109 110 111 112 113 115 116 117 117 117 118 120 123 125 128 130 133 136 138 139 140 140 139 136 132 128 125 122 120 118 116 113 110 107 104 101 99 96 93 90 87 85 84 83 82 80 78 76 75 74 73 73 73 73 73 73 74 73 71 70 70 70 72 74 75 74 74 75 75 74 73 73 73 73 73 73 75 79
105 106 107 108 108 109 110 111 113 114 115 116 117 118 119 120 121 123 126 128 131 133 136 139 141 143 143 143 143 140 137 132 128 125 123 120 118 115 113 109 106 103 100 97 94 91 88 85 83 82 80 79 78 76 74 73 71 71 70 70 71 71 72 72 72 71 71 71 71 71 73 75 75 75 75 75 75 74 73 73 74 74 73 74 77
107 108 109 110 111 112 113 114 116 117 118 119 120 122 123 124 126 129 131 134 136 139 142 144 146 147 148 147 145 141 136 131 128 125 123 121 118 115 112 108 105 101 98 95 92 89 86 84 82 80 79 77 76 74 73 71 69 68 68 68 68 69 70 71 71 71 72 72 72 72 73 74 75 74 74 75 75 74 73 74 76 75 73 74 76
109 110 111 112 113 115 116 117 119 120 121 122 124 125 127 129 131 134 136 139 142 144 147 149 151 152 151 149 145 141 136 131 127 125 123 121 118 115 111 107 103 99 96 93 91 88 85 83 81 79 77 76 75 73 72 69 67 66 66 66 67 68 69 70 70 71 72 73 73 73 73 73 73 73 74 74 74 73 72 73 75 75 73 73 74
112 113 114 115 116 118 119 121 121 122 123 125 127 129 131 134 136 138 141 144 147 149 152 154 155 155 153 150 144 139 135 131 127 125 123 120 117 113 109 104 101 97 94 92 90 87 85 82 80 78 77 75 74 73 71 68 66 65 64 64 65 66 68 68 70 71 73 74 74 74 74 73 72 72 72 73 73 72 70 70 72 73 73 72 72
115 115 117 118 120 121 122 123 124 125 127 129 131 133 136 138 140 143 146 148 151 153 156 157 158 156 153 148 143 138 134 131 128 125 122 119 115 111 106 102 99 96 94 92 90 87 84 82 80 78 76 75 74 72 71 68 66 64 64 64 64 65 67 68 70 71 72 73 75 75 74 73 72 71 71 72 71 70 69 68 69 70 71 71 71
117 118 120 121 123 123 124 125 127 129 131 133 136 138 140 142 145 147 150 152 154 156 158 160 159 156 152 146 141 136 133 131 128 124 121 117 113 108 104 101 98 95 93 92 89 86 84 81 79 77 75 74 73 72 70 69 67 65 64 64 64 65 66 68 69 70 71 72 74 74 74 73 72 71 71 71 71 70 68 67 66 67 67 69 70
120 122 123 124 125 126 127 129 131 134 136 138 140 141 143 146 148 151 153 155 157 159 161 161 159 154 149 143 139 135 133 130 126 122 118 114 110 106 103 100 97 95 93 91 89 85 83 80 78 76 75 74 74 72 70 69 68 66 65 65 65 65 66 67 68 69 70 71 72 73 74 73 73 72 72 71 71 70 68 67 66 65 65 66 67
124 125 126 127 128 129 131 134 136 138 140 141 143 145 147 149 151 154 156 157 159 161 162 160 157 151 145 140 137 134 131 128 123 119 115 111 108 105 102 99 97 95 92 91 88 84 82 79 77 75 74 74 73 72 71 70 68 67 66 66 66 66 66 66 66 67 69 70 71 72 73 73 73 73 72 71 71 70 68 67 66 65 64 63 64
127 127 129 130 132 134 136 138 140 142 143 144 146 148 150 152 154 156 158 159 161 162 161 158 153 147 141 138 135 133 129 124 120 115 112 109 106 104 101 99 97 94 91 89 87 83 81 79 76 74 73 74 73 72 71 70 69 68 67 67 67 67 67 66 66 66 67 68 70 71 72 72 73 72 72 70 69 68 67 66 66 64 63 62 62
130 131 132 134 136 138 140 141 143 144 146 147 149 151 153 155 157 159 160 161 162 162 159 154 148 143 139 136 133 129 125 121 117 113 110 107 105 103 100 98 95 92 89 87 85 82 80 78 75 73 73 73 72 72 71 70 69 68 68 67 67 68 67 67 66 66 66 67 69 70 71 71 72 72 71 70 68 67 65 65 64 63 62 62 61
133 135 136 138 140 141 143 145 146 147 149 150 152 154 156 158 159 161 162 163 162 159 154 148 143 139 137 134 130 125 120 117 114 111 109 106 104 102 99 96 93 90 87 85 83 81 80 77 75 73 73 73 72 72 71 70 69 68 67 67 67 67 68 68 67 67 67 67 68 69 70 70 71 71 71 70 68 66 65 63 63 62 61 61 61
137 138 140 142 143 144 146 147 148 150 152 153 155 157 159 160 162 163 163 162 160 155 149 143 139 137 134 131 126 120 116 114 112 109 107 104 102 100 97 94 91 88 85 83 81 80 79 76 74 74 73 72 72 71 71 70 69 68 67 66 66 66 67 67 67 67 67 67 67 67 68 69 69 69 70 69 68 66 65 64 62 61 60 60 60
141 142 143 145 146 147 148 150 151 153 155 156 158 160 161 162 163 163 162 160 155 149 143 139 136 134 130 126 121 117 114 111 110 108 106 103 100 97 95 92 89 86 84 82 80 79 78 75 74 74 73 72 72 71 70 69 68 67 66 66 66 66 66 66 66 66 66 66 66 67 67 67 68 68 68 68 68 67 66 65 64 62 61 60 60
144 145 146 148 149 150 151 153 154 156 158 159 161 162 163 164 163 162 160 155 149 144 139 136 134 130 126 122 118 115 112 110 108 106 104 101 98 95 93 91 88 85 83 81 80 79 77 75 75 75 73 72 72 71 70 69 68 67 66 66 66 66 65 65 65 65 65 65 65 66 66 66 67 67 67 67 66 66 66 65 65 64 62 61 60
148 148 150 151 152 153 155 156 158 159 161 162 163 164 164 164 162 159 154 149 143 139 136 133 130 126 122 118 115 112 110 108 106 104 101 99 96 94 91 89 87 85 82 81 80 78 76 75 75 75 73 73 73 72 71 70 69 68 67 66 66 65 65 64 64 64 63 64 64 65 65 66 66 66 66 66 66 65 65 65 65 64 63 62 61
151 152 153 154 155 156 157 159 160 162 163 164 164 164 163 161 158 153 148 143 139 136 133 129 125 121 118 115 112 109 107 104 103 101 99 96 94 92 89 88 86 84 82 80 79 77 75 74 75 74 73 72 72 72 71 71 70 69 68 66 65 65 64 64 64 63 63 63 63 63 64 65 65 65 65 65 65 64 63 63 64 63 63 62 62
154 155 156 157 158 159 160 162 163 164 164 164 164 162 160 156 151 146 142 139 136 132 128 124 120 117 114 111 108 106 103 101 98 97 95 94 92 89 87 86 84 83 81 80 78 76 74 74 74 73 72 71 71 72 71 71 71 70 68 67 65 64 64 64 63 63 62 62 61 62 62 63 64 64 64 64 65 64 63 62 62 62 61 62 61
157 158 159 160 161 162 163 164 165 165 164 163 161 158 154 150 145 141 138 136 132 129 124 120 116 113 110 107 105 102 100 97 95 93 92 90 89 87 85 84 82 81 80 79 77 75 73 73 72 71 71 70 70 71 71 71 71 69 68 67 65 64 63 63 62 62 61 61 60 60 60 61 62 62 63 63 64 64 63 62 61 60 60 60 60
160 161 162 163 163 164 165 165 164 163 161 158 155 151 147 143 141 138 136 132 128 124 120 117 113 110 106 103 101 99 97 94 92 90 89 88 87 85 83 82 80 79 79 77 76 74 73 72 72 71 70 69 70 70 71 71 70 69 67 66 65 63 62 61 61 61 60 60 59 59 59 59 60 61 61 62 62 63 63 62 61 60 59 59 58
163 164 164 165 165 165 165 164 162 159 156 152 148 144 142 139 137 135 132 128 124 120 116 113 110 107 104 101 98 96 94 92 89 88 87 86 85 83 82 80 80 79 78 76 75 73 72 72 71 71 70 69 69 69 70 70 70 68 66 65 64 63 62 61 60 60 59 58 58 57 57 58 58 59 60 61 61 62 62 62 61 59 59 58 58
165 166 166 166 165 164 162 159 156 153 149 146 142 140 138 137 134 131 127 123 119 116 113 110 107 105 102 99 96 94 92 89 87 86 84 83 83 81 80 79 79 79 78 76 74 73 72 71 71 70 69 68 68 68 69 69 69 67 65 64 63 62 61 60 59 59 58 57 56 56 56 56 57 58 59 60 60 60 60 60 59 58 57 58 58
166 166 165 164 162 159 156 153 150 146 144 141 139 138 135 133 129 126 122 119 115 112 109 107 104 102 99 97 95 92 90 88 86 84 83 82 81 79 78 77 77 77 76 74 73 72 72 71 70 69 68 68 68 67 68 68 68 66 64 64 62 61 60 60 59 58 57 56 55 55 54 55 56 57 59 59 60 59 59 59 58 57 56 56 57
165 164 162 159 156 153 150 146 143 141 140 138 137 134 131 128 124 121 118 114 111 109 106 103 101 99 97 95 93 90 88 85 84 82 81 80 79 78 76 75 74 74 74 72 71 70 71 71 69 68 67 67 67 67 67 68 67 65 64 63 62 60 59 59 58 57 56 55 53 53 54 54 55 56 58 58 59 58 58 58 57 56 54 54 55
160 158 155 152 149 146 143 141 139 138 137 135 132 129 125 122 119 116 113 110 108 105 102 100 98 96 94 93 91 88 85 83 81 80 79 78 78 76 75 74 73 73 72 70 69 69 70 70 68 67 67 67 66 66 67 67 66 64 64 63 61 59 59 58 58 57 55 54 52 52 53 54 54 55 56 57 57 57 57 56 56 55 54 53 53
153 150 147 145 142 140 139 138 136 134 132 129 126 123 120 117 114 112 109 106 103 101 99 97 95 94 92 91 89 86 83 81 80 79 78 77 76 75 74 73 72 72 71 69 68 69 69 69 67 67 66 66 65 65 66 65 65 64 63 62 60 59 58 57 57 56 54 53 52 52 52 53 54 54 55 55 56 56 56 55 54 54 52 51 51
145 143 141 139 138 137 136 134 132 129 126 123 120 117 115 112 110 107 104 102 100 98 96 94 93 92 90 89 87 84 81 79 78 77 76 75 74 73 72 71 70 70 69 68 67 68 68 67 66 66 65 65 64 64 64 64 64 64 63 61 59 58 57 56 55 55 54 52 51 51 52 53 53 54 54 54 54 54 54 54 54 52 51 50 50
139 138 137 136 135 133 131 128 125 122 120 117 114 112 110 107 105 103 100 98 97 95 93 92 91 89 88 86 84 82 79 77 76 76 75 74 73 72 71 70 69 68 67 67 67 67 67 66 65 65 64 63 62 63 62 62 62 63 62 60 59 58 56 55 54 54 53 52 51 51 51 52 52 53 53 53 52 52 52 52 53 52 50 48 48
136 135 134 133 130 128 125 122 119 117 114 112 109 107 105 103 101 99 98 96 94 92 91 89 88 86 85 83 81 79 77 75 74 74 73 73 72 71 70 69 68 67 66 65 66 66 66 66 65 64 62 61 61 60 60 60 61 62 61 60 58 57 55 54 53 53 52 51 51 50 50 51 51 52 52 52 52 51 50 50 51 51 49 48 47
133 132 129 127 124 122 119 116 114 111 109 107 105 103 101 99 98 96 95 93 91 89 88 86 85 83 82 80 78 77 75 74 72 71 71 71 71 70 69 68 67 67 65 64 64 65 65 65 65 63 61 61 60 59 59 59 60 60 60 59 57 56 55 53 53 52 51 51 51 50 50 50 50 51 51 51 51 50 49 49 49 49 49 47 46
128 126 123 121 118 116 114 111 109 107 105 103 101 99 98 96 95 93 91 90 88 87 85 83 82 80 79 78 76 75 74 73 71 70 69 69 69 70 69 67 66 65 65 65 64 64 64 64 64 63 62 60 59 58 58 59 59 59 58 57 56 55 54 53 52 51 50 50 50 49 49 49 49 50 50 50 50 49 48 47 48 49 48 47 46
122 120 118 116 114 112 109 107 105 103 101 99 98 96 95 93 91 90 88 87 86 84 82 81 79 78 77 76 75 74 73 72 71 70 68 68 68 68 68 67 65 65 65 65 64 64 64 64 63 63 62 60 58 57 57 58 58 58 57 56 55 54 53 52 51 50 50 50 50 49 48 48 48 48 48 48 48 48 47 46 47 48 48 47 46
118 116 114 112 110 108 106 104 102 100 98 96 95 93 91 90 88 87 86 84 83 82 80 79 77 76 75 74 73 72 72 71 71 70 69 68 67 67 68 67 66 65 65 65 64 64 64 64 63 63 62 60 58 57 57 57 57 57 56 55 54 53 52 51 50 50 49 49 49 48 47 47 47 46 47 47 47 46 46 46 46 47 47 48 46
114 112 110 108 106 104 102 100 99 97 95 94 92 90 89 87 86 84 83 82 81 79 78 77 76 74 73 73 72 71 71 71 70 70 69 68 67 67 67 67 66 65 65 64 64 63 63 63 63 63 62 60 58 56 55 56 56 55 54 54 53 52 51 51 50 49 48 48 48 47 47 46 45 45 45 45 46 45 45 45 45 45 46 47 46
110 108 106 104 102 100 99 97 96 94 93 91 89 88 86 85 83 82 81 80 79 77 76 75 74 73 72 72 71 71 70 70 70 69 69 68 67 66 66 66 66 65 64 64 63 62 62 62 62 62 61 59 57 55 54 54 54 54 53 53 52 51 50 50 49 48 48 47 47 46 46 45 44 43 43 44 44 44 44 44 44 45 45 46 46
106 104 102 101 99 97 96 94 93 91 90 88 87 85 84 82 81 80 79 78 77 76 75 74 73 73 72 71 70 70 69 69 69 68 68 67 67 66 66 65 65 64 64 63 62 61 61 61 61 61 60 58 55 54 53 53 53 52 52 51 50 50 49 49 48 48 47 46 46 45 45 44 43 42 42 43 43 42 43 43 43 44 44 45 45
103 101 99 98 96 94 93 91 90 89 87 86 84 83 82 80 79 78 77 76 75 75 74 73 73 72 71 70 70 69 68 68 67 67 67 66 66 65 65 64 64 63 63 62 61 60 60 59 59 59 57 56 54 53 52 51 51 51 50 50 49 49 48 48 47 47 47 46 45 44 44 43 42 41 41 42 42 41 41 42 42 43 43 43 44
99 98 96 94 93 92 90 89 87 86 85 84 82 81 80 79 78 77 76 75 75 74 73 72 72 71 70 69 69 68 68 67 67 66 66 65 65 64 63 63 62 62 61 60 59 59 58 58 57 56 55 54 53 51 50 49 49 49 48 48 48 48 47 47 46 46 46 45 44 43 43 42 42 41 41 41 41 41 41 41 41 42 42 42 42
Wind_Direction
291 292 293 294 294 294 294 294 294 294 294 295 295 294 294 294 295 295 295 294 294 294 295 295 295 296 296 297 298 299 300 301 302 303 304 305 306 306 306 305 304 303 303 302 301 300 299 298 297 296 295 294 292 291 290 289 288 286 285 284 284 283 282 280 278 275 272 270 270 268 268 268 268 268 267 266 266 266 265 263 261 260 259 258 257
291 293 294 294 294 294 294 294 294 294 294 294 294 294 294 294 294 294 294 294 294 294 295 296 296 297 298 299 300 301 301 302 303 304 305 306 306 306 306 305 304 303 303 302 301 300 299 298 297 296 295 294 293 292 291 289 288 287 286 285 284 283 282 281 280 277 274 272 271 269 268 267 266 266 266 266 266 266 265 265 264 263 261 260 259
292 293 294 295 294 294 293 293 293 293 293 293 293 293 293 293 293 293 293 294 294 295 296 296 297 298 299 300 301 302 302 303 304 305 306 307 307 307 307 306 305 304 304 303 302 301 300 299 298 297 296 295 294 292 291 290 289 288 287 286 285 283 283 282 280 278 276 273 272 271 270 268 267 265 265 264 264 264 264 264 264 264 263 261 260
293 294 295 295 293 292 292 292 292 292 292 292 293 293 293 293 293 293 293 294 295 296 297 298 299 300 301 301 302 303 304 305 306 307 308 309 309 308 308 307 306 305 305 304 303 301 301 300 299 298 296 295 294 293 292 291 290 289 288 286 285 284 283 282 281 279 277 275 273 272 271 270 269 267 266 264 263 263 262 262 262 263 263 262 261
293 294 294 293 291 291 291 291 291 291 292 292 292 292 292 292 293 294 295 296 297 298 299 299 301 301 302 303 304 305 306 307 309 310 310 310 310 309 308 307 306 306 305 304 303 302 301 300 299 298 296 295 294 293 292 291 290 289 288 286 285 284 283 282 281 279 278 276 273 272 271 271 269 268 267 265 264 263 262 262 261 261 261 261 261
293 292 292 291 290 290 290 290 291 291 292 292 292 292 293 293 294 295 297 298 299 299 300 301 302 303 304 305 307 308 309 310 311 311 311 311 310 309 308 307 306 305 305 303 302 301 300 300 299 297 296 295 294 293 292 291 290 289 288 287 285 284 283 282 281 280 278 277 275 273 272 271 270 269 268 267 265 264 263 262 262 261 261 261 261
291 291 290 290 289 289 290 290 291 291 292 292 292 293 294 295 296 298 299 300 300 301 302 303 304 305 306 308 309 310 311 312 312 312 311 311 310 309 308 307 306 305 304 303 302 301 300 299 298 297 296 295 294 293 292 291 290 289 288 287 285 284 283 282 281 280 279 277 276 274 272 271 270 269 268 268 267 265 263 263 262 262 261 260 260
290 290 289 289 289 290 291 291 292 292 293 293 294 295 296 297 299 300 301 301 302 303 304 305 306 308 309 311 312 313 313 313 313 312 311 311 310 309 308 307 306 305 304 303 302 301 300 299 298 297 296 295 294 293 292 291 290 289 288 287 285 284 283 282 282 281 279 278 277 275 273 271 270 269 268 268 267 266 265 263 262 261 262 262 261
289 289 290 290 290 291 292 292 293 293 294 295 296 297 298 300 301 302 302 303 304 305 306 308 309 311 312 313 314 314 314 313 313 312 311 311 310 309 308 307 306 305 304 303 302 301 300 299 298 297 296 294 294 293 292 291 290 289 288 287 286 285 283 282 281 281 280 279 278 276 274 272 270 269 268 268 267 267 266 265 263 261 260 261 261
289 290 291 291 291 292 293 293 294 295 296 297 298 299 301 302 303 303 304 305 306 307 309 310 312 313 314 315 315 315 314 313 313 312 311 310 310 309 308 307 307 306 305 303 302 301 300 299 298 296 295 294 293 293 292 291 290 289 288 287 286 285 284 283 282 281 280 279 278 277 275 273 272 271 269 268 267 266 266 265 265 263 261 260 259
289 291 291 292 293 293 294 295 295 296 298 299 300 302 303 304 304 305 306 307 309 310 311 313 314 315 316 316 316 315 314 313 313 312 311 310 310 309 308 308 307 306 305 303 302 301 300 299 298 297 295 294 293 292 292 291 290 289 288 287 286 285 284 283 282 281 280 279 278 277 276 274 273 272 271 269 268 267 266 265 264 263 263 261 259
291 292 293 293 294 295 295 296 297 299 300 301 303 304 305 306 306 307 308 310 311 312 314 315 316 316 317 316 316 315 314 313 313 312 311 310 310 309 309 308 307 306 304 303 302 301 300 299 298 297 296 294 293 293 292 291 290 289 288 287 286 285 285 284 282 281 281 280 279 278 277 275 274 273 273 272 270 269 267 266 264 263 262 261 260
292 293 294 294 295 296 297 298 300 301 303 304 305 306 307 307 308 309 311 312 313 315 316 317 317 317 317 317 316 316 314 313 313 312 311 311 310 310 309 308 307 306 304 303 302 301 300 299 298 297 295 294 293 292 292 291 290 289 288 287 286 286 285 284 283 282 281 280 280 279 278 277 276 275 274 273 272 271 269 268 266 264 262 261 260
294 295 295 296 297 298 300 301 303 304 305 306 307 307 308 309 310 312 313 315 316 316 317 318 318 317 317 317 316 316 314 313 313 312 312 311 310 310 309 308 307 306 304 303 302 301 300 299 298 297 295 294 293 292 292 291 290 289 288 287 286 286 285 284 283 283 282 280 279 279 279 279 278 277 276 276 274 273 271 270 268 266 263 261 260
296 296 297 298 300 301 302 304 305 306 307 307 308 309 310 311 313 314 315 316 317 317 318 318 318 318 317 317 316 315 314 313 313 312 312 311 310 309 309 308 307 306 304 303 302 301 300 299 298 297 295 294 293 293 292 291 290 289 288 287 286 285 285 284 284 283 282 281 280 278 278 278 278 277 277 276 276 275 273 272 270 268 266 264 262
297 298 299 301 302 303 305 305 306 307 307 308 309 310 312 313 315 316 316 317 317 318 318 318 318 317 317 317 316 315 314 313 313 312 312 311 310 309 308 308 307 305 304 303 302 301 301 300 299 297 296 295 294 293 292 291 290 290 289 287 287 286 285 285 284 284 283 281 280 279 278 277 277 277 276 276 275 275 274 273 272 271 269 267 265
299 300 301 303 304 305 306 306 307 307 308 309 311 312 313 314 315 316 316 317 317 318 318 318 317 317 317 316 315 314 313 313 312 312 312 311 310 309 308 307 306 305 304 304 303 302 301 301 299 298 297 295 294 293 292 292 291 290 289 288 287 286 286 285 285 284 283 282 281 280 279 278 277 277 276 275 275 274 273 272 272 272 270 268 267
301 302 303 304 305 306 306 306 307 308 309 311 312 313 314 315 315 316 316 317 317 317 317 317 317 317 316 316 315 314 313 312 312 312 311 310 309 308 307 307 306 305 305 304 303 303 302 301 300 299 297 296 295 294 293 293 292 290 289 288 288 287 287 286 286 285 285 284 283 282 280 279 278 277 277 276 275 274 273 271 271 271 271 269 268
303 304 305 305 305 306 306 307 308 309 311 312 313 313 314 315 315 316 316 316 316 316 316 316 316 316 315 315 314 313 312 312 312 312 311 310 309 308 307 307 306 306 305 304 304 303 303 302 300 299 298 297 296 295 294 294 293 291 290 290 289 289 288 288 287 286 286 285 284 283 282 281 280 278 277 277 276 275 273 272 271 270 270 270 268
304 305 305 305 305 306 307 308 309 310 311 312 313 313 314 314 314 315 315 315 315 315 315 315 315 315 314 314 313 312 312 312 312 311 310 309 308 307 307 307 306 306 305 304 304 303 303 302 300 299 299 298 297 296 295 294 293 293 292 291 290 290 289 289 288 287 286 285 285 284 283 283 282 280 279 278 277 276 274 273 271 270 269 269 268
304 304 305 305 305 306 308 309 310 311 311 312 312 312 313 313 314 314 314 314 314 314 315 315 314 314 313 312 312 312 311 311 311 310 309 308 307 307 307 306 306 305 305 304 304 303 302 301 300 299 299 298 297 297 296 295 294 294 293 292 291 291 290 289 288 287 286 285 284 284 284 283 283 282 281 280 279 277 276 274 272 270 268 267 267
304 304 305 305 306 308 309 310 310 310 310 311 311 312 312 313 313 313 313 313 313 314 314 314 313 313 312 311 311 311 311 311 310 309 308 307 307 307 306 306 305 305 304 304 303 303 302 301 300 299 299 299 298 297 297 296 295 295 294 293 292 291 290 289 287 286 286 285 285 284 284 284 283 282 281 280 279 278 277 276 274 272 269 267 266
304 304 305 306 307 308 308 309 309 309 309 310 311 311 311 312 312 312 312 312 313 313 313 313 312 311 311 311 311 310 310 310 309 308 307 307 306 306 306 305 304 304 304 303 303 302 302 301 300 300 299 298 298 297 297 296 296 296 295 294 293 292 290 289 288 286 285 285 284 284 283 283 283 282 282 281 279 278 277 276 275 273 271 268 266
304 305 306 306 307 307 307 307 307 308 309 310 310 310 310 310 310 311 311 312 312 312 312 312 311 310 310 310 310 310 309 308 308 307 307 306 306 305 304 304 303 303 303 303 302 302 301 300 300 300 299 298 298 297 296 296 296 296 295 294 293 292 291 290 289 288 287 286 285 284 284 283 283 282 282 281 280 279 277 276 274 273 271 270 268
304 305 305 306 306 306 306 306 307 308 308 309 309 309 309 309 310 310 311 311 311 311 311 310 310 310 309 309 309 309 308 308 307 306 306 305 305 304 303 303 303 303 302 302 302 302 301 300 300 300 299 298 298 297 296 296 296 295 295 294 293 292 292 291 290 289 288 287 286 284 284 283 283 283 283 282 281 280 279 277 275 273 272 271 270
304 304 304 305 305 305 305 306 307 307 308 308 308 308 308 309 309 310 310 310 310 310 310 309 309 309 308 308 308 308 307 307 306 305 305 304 304 303 303 303 303 303 302 302 302 301 300 300 300 299 298 298 297 296 296 295 295 294 294 293 292 291 291 290 290 289 288 287 286 284 283 283 282 282 282 282 282 281 280 279 277 275 274 272 271
303 303 303 304 304 305 305 306 306 307 307 307 308 308 308 308 309 309 309 309 309 309 308 308 308 308 308 308 308 307 307 306 305 304 304 304 303 303 303 303 303 303 302 302 302 301 300 300 300 299 298 298 297 296 295 295 294 294 293 292 292 291 291 290 289 289 288 287 286 285 284 283 282 282 282 282 282 282 281 281 279 278 276 274 272
302 302 303 303 304 304 305 305 306 306 306 307 307 307 308 308 308 308 309 308 308 308 308 308 308 307 307 307 307 307 306 305 304 304 303 303 303 303 303 303 303 302 302 302 301 300 300 301 299 298 298 297 296 296 295 294 293 293 293 292 292 291 291 290 289 289 288 287 286 285 284 283 283 282 282 281 281 281 281 280 280 279 278 276 274
301 302 302 303 303 304 304 305 305 305 306 306 306 307 307 307 307 308 307 307 307 307 307 307 307 307 307 306 306 305 305 304 303 303 303 302 302 302 302 302 302 302 302 302 300 300 300 300 298 298 298 297 296 296 295 295 294 294 293 293 292 292 291 290 290 289 288 287 286 285 285 284 283 282 282 281 280 280 279 279 279 278 277 276 275
301 301 302 302 303 303 303 304 304 304 305 305 306 306 306 307 307 306 306 306 306 306 306 306 306 306 306 305 304 304 303 303 302 302 302 301 301 301 301 301 301 301 301 300 299 299 300 298 297 297 297 296 295 295 295 295 294 294 294 293 293 292 292 291 290 289 288 287 286 285 284 283 283 282 281 280 280 279 278 277 277 277 276 275 274
300 301 301 301 302 302 302 303 303 304 304 305 305 305 306 306 305 305 305 305 305 305 306 305 305 305 304 303 303 302 302 301 301 301 300 300 300 300 300 300 300 300 300 299 298 298 298 297 296 295 295 295 295 295 294 294 294 294 294 293 292 292 291 290 289 288 287 286 285 284 284 283 282 282 281 280 280 278 277 276 276 275 275 274 274
300 300 300 301 301 301 302 302 303 303 304 304 304 305 305 305 304 304 305 305 305 305 305 305 304 303 303 302 302 301 301 300 300 300 299 299 299 299 299 299 299 299 298 297 297 297 296 295 294 294 294 294 294 294 293 293 293 293 293 293 292 291 290 289 288 288 287 286 285 284 283 282 282 281 281 280 280 279 278 277 275 275 274 273 273
299 300 300 300 301 301 301 302 302 303 303 303 304 304 304 304 304 304 304 304 304 304 304 303 303 302 302 301 301 301 300 300 300 299 299 299 299 298 298 298 298 297 296 296 296 296 295 295 294 294 294 294 293 293 293 292 292 292 292 292 291 291 290 288 288 287 286 285 285 284 283 282 281 280 279 279 279 279 278 278 277 276 275 274 273
299 299 300 300 300 301 301 302 302 302 303 303 303 303 303 303 303 303 304 304 303 303 303 303 302 302 301 301 301 300 300 299 299 299 299 298 298 298 298 298 297 296 296 296 295 295 295 294 294 293 293 293 293 292 292 291 291 292 292 291 290 290 289 288 287 287 286 285 284 283 283 281 280 280 279 278 277 277 277 278 278 277 277 276 274
298 299 299 299 300 300 301 301 302 302 302 302 302 303 303 303 303 303 303 303 303 302 302 302 302 301 301 301 300 300 299 299 299 298 298 298 297 297 297 297 296 295 295 295 295 294 294 293 293 293 293 292 292 291 291 291 291 291 291 291 290 290 289 288 287 287 286 285 284 283 282 281 280 279 278 277 277 277 277 277 277 277 277 276 276
298 298 299 299 300 300 300 301 301 301 301 302 302 302 302 302 302 302 302 302 302 302 302 301 301 301 300 300 299 299 299 299 298 298 298 297 296 296 295 294 294 293 293 293 293 293 293 292 292 292 292 292 291 291 291 290 291 291 291 290 290 289 289 288 287 287 286 285 285 284 282 281 280 279 278 277 277 277 277 277 277 276 276 276 275
297 298 298 298 299 299 300 300 300 301 301 301 301 301 301 301 301 301 301 301 301 301 301 301 300 300 299 299 298 298 298 298 298 297 296 295 295 294 293 293 292 292 292 292 293 293 292 292 292 292 292 291 291 291 290 290 290 291 291 290 290 290 289 288 288 287 286 285 285 283 282 281 279 278 278 277 277 277 277 277 277 276 276 275 275
297 297 297 298 298 299 299 300 300 300 300 301 301 300 300 300 301 301 301 301 301 300 300 300 299 299 298 298 298 298 298 297 297 296 295 295 294 293 293 292 292 292 292 292 292 292 291 291 292 292 291 291 291 290 290 290 290 291 290 290 290 289 289 288 288 287 286 285 284 283 281 280 279 278 277 277 277 277 277 276 276 276 275 275 274
296 296 297 297 298 298 299 299 299 300 300 300 299 299 300 300 300 300 300 300 300 300 299 299 299 298 298 297 297 297 297 297 296 296 295 294 293 292 292 292 292 292 292 292 292 291 291 291 291 291 290 290 290 290 290 290 291 290 290 290 289 289 288 288 287 287 286 286 285 283 281 280 278 278 277 277 277 277 277 276 276 275 275 274 274
295 296 296 297 298 298 298 298 299 299 299 299 299 299 299 299 299 299 299 299 299 299 299 298 298 298 297 297 297 297 296 296 295 295 294 293 292 291 291 291 291 291 291 291 291 290 290 290 290 290 289 289 290 290 290 290 290 289 289 289 289 289 288 288 287 287 286 285 284 283 281 280 279 278 277 277 277 276 276 276 276 275 274 274 274
295 296 296 297 297 297 298 298 298 298 298 298 298 298 298 298 298 298 298 298 298 298 298 297 297 297 296 296 296 295 295 295 294 293 293 292 292 292 292 291 291 291 291 291 291 290 289 289 289 289 289 289 289 289 290 290 289 289 289 289 289 288 288 288 287 287 286 285 284 282 281 280 279 278 278 277 277 276 276 276 276 275 275 274 274
295 296 296 296 297 297 297 297 298 298 298 298 298 298 298 298 298 298 298 298 298 297 297 297 296 296 295 295 295 294 294 294 293 292 292 292 292 292 292 291 291 291 291 291 290 290 290 289 289 289 290 290 289 290 290 289 289 288 289 289 289 288 288 288 287 286 286 285 283 282 281 280 279 278 278 278 277 277 276 276 276 276 276 276 275
295 295 296 296 296 297 297 297 297 298 298 298 298 298 298 298 298 297 297 297 297 297 296 296 296 295 295 294 294 294 293 292 291 291 292 292 292 292 291 292 292 292 291 291 290 290 290 290 290 290 291 290 290 290 289 289 288 288 288 288 288 288 288 288 287 286 285 284 283 281 281 280 279 278 278 278 278 278 277 277 277 277 277 277 276
295 295 296 296 297 297 297 297 297 297 297 297 297 297 297 297 297 297 297 296 296 296 296 295 295 295 294 294 294 293 293 292 292 292 292 292 292 292 292 292 292 292 292 292 291 291 291 290 291 291 291 291 291 290 289 288 288 288 288 288 288 288 288 287 286 285 284 283 282 281 280 279 279 278 278 278 278 278 278 278 278 278 278 277 277
295 296 296 297 297 297 297 297 297 297 297 297 297 297 297 296 296 296 296 296 296 296 295 295 295 295 295 295 294 294 293 293 293 293 293 293 293 293 293 293 293 293 293 292 292 292 292 291 292 291 291 291 291 290 289 288 288 288 288 288 287 287 287 286 285 284 283 282 281 280 280 279 278 278 278 278 278 279 279 278 278 278 278 278 277
296 296 297 297 297 297 297 297 297 297 296 296 296 296 296 297 296 296 296 296 296 295 295 295 295 295 295 294 294 294 294 294 294 294 294 294 294 294 294 294 294 294 293 293 293 292 292 292 292 291 291 290 290 289 289 288 288 287 287 287 287 286 286 285 284 284 282 282 281 280 279 279 278 278 278 278 278 278 279 278 278 278 278 278 278
296 296 296 296 296 296 296 296 296 296 296 296 296 296 296 296 296 296 296 295 295 295 295 295 295 295 295 295 295 295 295 295 295 294 294 294 294 294 294 294 293 293 293 293 292 292 292 292 291 290 290 289 289 289 288 288 287 287 287 286 286 286 285 284 283 283 282 281 280 280 279 279 278 278 278 278 278 278 278 278 278 278 278 278 278
296 296 296 296 296 296 296 296 296 296 296 296 296 296 296 296 296 296 295 295 295 295 295 295 295 295 295 295 295 295 295 294 294 294 294 294 294 294 293 293 293 292 292 292 292 291 291 290 289 289 289 289 289 289 288 287 287 286 286 286 285 285 284 283 283 282 281 280 280 280 279 278 278 277 277 277 277 277 277 277 277 277 277 278 278
295 295 296 296 296 296 296 296 296 296 296 296 296 296 296 296 296 295 295 295 295 295 295 295 295 295 295 295 295 294 294 294 294 294 294 294 294 293 293 293 292 292 292 291 291 290 290 289 288 288 288 289 289 288 287 286 286 285 285 285 285 284 283 283 282 281 281 280 280 279 279 278 278 277 277 276 276 276 276 276 276 276 276 276 276
295 295 295 295 295 296 296 296 296 296 296 296 296 296 296 296 295 295 295 295 295 295 295 295 295 295 295 295 294 294 294 294 294 294 294 293 293 293 293 292 292 292 291 291 290 290 289 288 288 288 288 288 288 286 286 285 285 284 284 284 284 283 282 282 281 281 280 280 279 279 279 278 278 277 277 276 276 275 275 275 275 275 274 274 274
294 295 295 295 295 296 296 296 296 296 296 296 296 296 296 296 295 295 295 295 295 295 295 295 295 295 295 295 295 295 294 294 294 294 294 293 293 293 292 292 292 291 290 290 289 289 288 287 287 287 287 286 286 285 285 284 284 283 283 283 283 282 282 281 281 280 280 280 279 279 278 278 278 277 276 276 276 276 275 275 275 274 274 273 273
Height
10610 10608 10605 10601 10597 10593 10589 10584 10581 10577 10574 10569 10565 10560 10555 10550 10545 10540 10535 10530 10526 10520 10514 10507 10500 10493 10486 10479 10472 10465 10457 10450 10442 10435 10427 10420 10411 10402 10394 10385 10377 10369 10360 10353 10345 10338 10331 10324 10318 10312 10307 10302 10297 10292 10289 10285 10282 10278 10274 10272 10269 10266 10267 10267 10270 10277 10275 10267 10268 10269 10263 10263 10264 10260 10261 10264 10260 10259 10264 10267 10269 10273 10276 10278 10281
10601 10598 10595 10591 10587 10582 10578 10574 10571 10567 10563 10558 10554 10550 10545 10539 10534 10529 10524 10519 10513 10507 10501 10494 10487 10480 10473 10466 10458 10450 10443 10435 10428 10421 10412 10404 10396 10386 10378 10369 10360 10352 10344 10336 10328 10321 10314 10307 10301 10296 10290 10285 10280 10276 10273 10269 10266 10263 10259 10257 10255 10251 10249 10250 10251 10255 10260 10254 10250 10251 10249 10248 10251 10248 10245 10249 10249 10245 10245 10247 10248 10254 10260 10263 10266
10591 10588 10584 10580 10576 10572 10568 10564 10561 10557 10552 10548 10543 10539 10533 10528 10523 10518 10512 10506 10500 10494 10487 10480 10474 10467 10459 10452 10444 10436 10429 10421 10413 10405 10397 10388 10380 10370 10361 10353 10344 10336 10327 10319 10311 10303 10297 10290 10285 10280 10274 10268 10264 10260 10257 10254 10250 10248 10245 10241 10240 10237 10234 10233 10234 10235 10241 10242 10236 10234 10234 10232 10234 10235 10232 10233 10235 10232 10231 10231 10230 10232 10239 10244 10249
10581 10577 10573 10569 10565 10561 10558 10554 10550 10545 10541 10537 10532 10527 10522 10517 10511 10505 10499 10493 10487 10480 10474 10467 10460 10453 10445 10437 10429 10422 10414 10406 10398 10390 10381 10373 10364 10354 10345 10336 10328 10320 10311 10303 10295 10287 10281 10275 10269 10264 10258 10252 10248 10244 10241 10238 10235 10232 10230 10227 10224 10223 10220 10217 10217 10218 10222 10226 10223 10219 10218 10217 10217 10218 10218 10219 10220 10217 10216 10217 10216 10215 10217 10222 10228
10570 10566 10563 10559 10555 10551 10547 10543 10539 10534 10530 10525 10520 10515 10511 10505 10498 10492 10485 10479 10473 10467 10460 10452 10445 10438 10430 10422 10414 10406 10399 10391 10383 10374 10366 10357 10348 10339 10330 10320 10312 10304 10296 10288 10280 10272 10266 10260 10254 10248 10243 10237 10233 10230 10226 10223 10221 10218 10215 10213 10210 10208 10206 10202 10201 10202 10203 10208 10210 10207 10203 10202 10202 10201 10201 10203 10206 10204 10202 10204 10204 10202 10201 10202 10206
10559 10556 10553 10549 10544 10539 10535 10531 10527 10523 10517 10512 10508 10503 10497 10491 10484 10477 10471 10465 10459 10452 10445 10438 10430 10422 10414 10406 10398 10390 10382 10375 10367 10358 10350 10341 10333 10324 10314 10305 10296 10288 10281 10273 10265 10258 10252 10246 10239 10232 10227 10223 10218 10215 10212 10209 10207 10204 10201 10199 10196 10193 10191 10188 10186 10186 10187 10190 10193 10194 10191 10188 10187 10186 10184 10185 10190 10190 10189 10190 10191 10190 10189 10189 10188
10548 10545 10542 10537 10532 10527 10523 10520 10515 10510 10504 10500 10495 10490 10483 10476 10469 10462 10456 10450 10443 10437 10430 10423 10415 10406 10398 10390 10383 10375 10366 10359 10350 10342 10333 10325 10316 10308 10298 10289 10281 10273 10266 10258 10251 10244 10238 10231 10225 10218 10213 10208 10204 10201 10198 10195 10193 10190 10187 10184 10182 10178 10176 10174 10172 10172 10173 10174 10176 10179 10179 10176 10172 10170 10169 10169 10173 10174 10175 10178 10179 10176 10175 10177 10178
10537 10534 10530 10524 10519 10515 10511 10507 10502 10496 10491 10486 10481 10475 10467 10460 10454 10447 10441 10435 10428 10421 10414 10406 10398 10390 10382 10374 10366 10359 10351 10343 10335 10326 10317 10309 10300 10291 10282 10273 10266 10258 10250 10243 10236 10229 10223 10217 10210 10205 10199 10194 10190 10187 10184 10182 10180 10176 10173 10169 10167 10164 10161 10160 10158 10157 10158 10160 10161 10163 10164 10162 10157 10156 10155 10155 10157 10158 10159 10164 10168 10165 10160 10162 10165
10525 10521 10517 10511 10506 10501 10497 10493 10487 10482 10478 10472 10466 10459 10452 10445 10439 10432 10426 10419 10412 10405 10398 10390 10382 10374 10366 10358 10350 10342 10335 10327 10318 10310 10301 10293 10284 10275 10266 10257 10250 10242 10235 10228 10221 10214 10208 10202 10196 10190 10185 10180 10176 10173 10170 10168 10167 10163 10159 10155 10152 10150 10148 10146 10145 10144 10144 10146 10147 10147 10149 10147 10143 10141 10142 10142 10142 10144 10144 10147 10153 10153 10151 10151 10150
10511 10507 10503 10497 10492 10488 10483 10478 10473 10468 10463 10457 10450 10443 10436 10430 10423 10417 10410 10403 10396 10389 10381 10373 10366 10358 10350 10342 10334 10326 10318 10310 10302 10293 10285 10277 10268 10259 10250 10241 10234 10227 10220 10213 10207 10200 10193 10187 10182 10176 10171 10167 10163 10159 10157 10155 10153 10149 10146 10142 10139 10136 10134 10133 10132 10131 10132 10133 10133 10132 10133 10132 10129 10127 10129 10128 10129 10132 10133 10134 10137 10138 10138 10142 10140
10497 10493 10489 10483 10478 10475 10469 10463 10459 10454 10448 10441 10434 10427 10420 10414 10407 10401 10394 10386 10379 10372 10364 10357 10350 10342 10334 10325 10317 10309 10301 10293 10285 10276 10268 10260 10252 10243 10234 10226 10219 10212 10205 10199 10192 10186 10179 10173 10167 10162 10158 10154 10150 10146 10144 10142 10139 10136 10132 10129 10126 10124 10122 10120 10119 10119 10119 10120 10120 10118 10117 10118 10116 10113 10113 10115 10117 10119 10121 10122 10124 10124 10123 10127 10128
10483 10479 10474 10468 10465 10460 10455 10449 10443 10438 10432 10425 10418 10412 10405 10398 10391 10385 10378 10370 10362 10355 10348 10341 10333 10325 10317 10309 10301 10292 10283 10275 10267 10258 10250 10243 10235 10227 10218 10211 10204 10197 10190 10184 10177 10172 10166 10159 10154 10148 10144 10140 10136 10133 10132 10129 10126 10122 10119 10116 10113 10111 10109 10108 10107 10107 10108 10108 10107 10103 10101 10104 10105 10101 10098 10101 10104 10105 10108 10110 10110 10111 10111 10111 10112
10469 10464 10459 10455 10451 10446 10440 10434 10427 10421 10416 10409 10403 10396 10389 10382 10375 10368 10361 10354 10346 10339 10332 10325 10317 10309 10301 10292 10284 10275 10265 10257 10250 10241 10233 10226 10219 10212 10204 10196 10190 10182 10175 10168 10162 10157 10151 10146 10141 10135 10130 10126 10123 10121 10120 10117 10113 10110 10106 10104 10101 10098 10096 10094 10094 10096 10097 10096 10094 10091 10087 10088 10091 10089 10086 10087 10091 10092 10093 10096 10096 10098 10099 10097 10096
10455 10450 10445 10441 10437 10432 10426 10419 10412 10405 10400 10393 10387 10380 10372 10365 10358 10351 10345 10337 10330 10323 10315 10308 10300 10292 10284 10275 10267 10257 10247 10240 10233 10224 10217 10210 10203 10196 10189 10182 10175 10168 10160 10154 10148 10142 10137 10132 10128 10122 10117 10113 10110 10109 10107 10105 10102 10098 10095 10092 10089 10086 10084 10081 10081 10083 10084 10084 10083 10081 10076 10074 10075 10076 10074 10073 10077 10079 10079 10081 10081 10082 10085 10083 10081
10440 10435 10431 10427 10422 10417 10410 10403 10396 10390 10384 10378 10371 10363 10355 10348 10341 10334 10328 10320 10314 10307 10299 10291 10283 10274 10267 10259 10250 10240 10230 10223 10217 10209 10201 10194 10187 10180 10173 10166 10160 10153 10146 10140 10134 10128 10123 10119 10114 10109 10105 10100 10098 10096 10094 10093 10090 10087 10084 10081 10078 10075 10072 10069 10069 10070 10069 10069 10069 10069 10067 10063 10062 10063 10062 10060 10062 10064 10066 10067 10065 10066 10069 10069 10066
10426 10421 10417 10413 10408 10401 10395 10388 10381 10375 10369 10362 10355 10346 10339 10332 10325 10318 10311 10304 10297 10290 10282 10274 10266 10258 10250 10242 10233 10224 10214 10207 10201 10193 10185 10178 10171 10164 10157 10151 10145 10139 10132 10126 10120 10114 10109 10105 10101 10096 10092 10089 10085 10083 10082 10081 10079 10076 10073 10070 10067 10064 10060 10058 10057 10056 10054 10054 10055 10055 10054 10052 10050 10050 10050 10050 10050 10051 10053 10052 10049 10050 10054 10054 10052
10412 10408 10404 10399 10393 10386 10380 10373 10367 10360 10354 10347 10339 10330 10323 10316 10309 10302 10295 10288 10281 10274 10266 10258 10250 10242 10234 10226 10218 10208 10199 10191 10186 10178 10169 10162 10155 10148 10142 10137 10131 10125 10119 10112 10106 10101 10096 10092 10088 10084 10080 10076 10074 10071 10069 10069 10068 10066 10063 10060 10057 10053 10050 10047 10045 10042 10040 10040 10040 10039 10039 10039 10039 10038 10038 10037 10037 10039 10041 10040 10035 10036 10039 10040 10039
10399 10396 10391 10384 10377 10371 10365 10359 10353 10346 10339 10332 10323 10315 10308 10301 10294 10287 10280 10273 10266 10258 10251 10242 10234 10226 10218 10210 10202 10192 10183 10175 10170 10163 10154 10147 10140 10133 10127 10122 10117 10111 10105 10098 10092 10087 10083 10079 10075 10071 10068 10064 10061 10058 10056 10056 10056 10054 10052 10049 10046 10042 10039 10036 10033 10030 10027 10025 10024 10024 10025 10025 10027 10027 10025 10024 10024 10025 10029 10029 10024 10023 10025 10026 10027
10387 10382 10376 10369 10363 10357 10351 10344 10338 10331 10323 10316 10308 10301 10294 10287 10280 10273 10266 10258 10252 10244 10236 10227 10219 10211 10203 10194 10185 10176 10168 10160 10154 10147 10139 10132 10125 10119 10113 10108 10103 10098 10092 10085 10079 10075 10071 10067 10062 10058 10056 10053 10049 10046 10044 10043 10043 10042 10040 10038 10036 10032 10028 10025 10021 10018 10016 10013 10010 10009 10010 10010 10012 10013 10012 10011 10011 10011 10014 10016 10015 10013 10013 10013 10014
10374 10367 10361 10355 10348 10343 10336 10329 10322 10315 10307 10301 10294 10287 10280 10273 10266 10259 10252 10245 10238 10230 10222 10213 10205 10197 10189 10179 10170 10161 10154 10146 10139 10132 10124 10116 10110 10105 10100 10094 10089 10085 10079 10073 10068 10064 10059 10055 10051 10046 10044 10041 10036 10034 10032 10031 10030 10030 10028 10026 10024 10021 10018 10014 10010 10007 10005 10002 9999 9996 9996 9996 9997 9998 9998 9997 9997 9998 10000 10002 10003 10004 10003 10002 10001
10359 10353 10347 10340 10334 10328 10321 10314 10307 10299 10293 10287 10280 10274 10267 10260 10253 10245 10238 10231 10224 10216 10208 10199 10191 10183 10174 10165 10156 10147 10140 10132 10124 10117 10110 10102 10096 10091 10086 10081 10076 10072 10067 10061 10056 10052 10048 10044 10039 10036 10033 10029 10025 10022 10020 10018 10018 10017 10016 10014 10013 10010 10008 10004 10000 9996 9994 9991 9988 9985 9984 9984 9983 9983 9984 9984 9983 9984 9986 9988 9989 9991 9992 9992 9991
10344 10338 10332 10325 10318 10312 10305 10298 10292 10285 10279 10273 10267 10261 10253 10246 10239 10232 10225 10218 10210 10202 10194 10186 10177 10169 10160 10151 10142 10133 10126 10119 10111 10103 10096 10089 10083 10078 10073 10068 10063 10059 10055 10050 10044 10041 10037 10032 10028 10025 10022 10018 10014 10012 10009 10007 10006 10005 10004 10002 10000 9998 9996 9994 9991 9988 9984 9980 9978 9975 9973 9972 9971 9970 9970 9970 9970 9971 9972 9973 9974 9976 9978 9980 9981
10329 10324 10317 10310 10303 10297 10290 10284 10278 10272 10266 10259 10253 10247 10240 10232 10226 10219 10212 10205 10197 10189 10181 10173 10164 10155 10146 10137 10129 10120 10112 10104 10096 10089 10083 10076 10071 10066 10061 10056 10051 10047 10043 10038 10033 10030 10025 10021 10017 10015 10011 10007 10004 10001 9998 9996 9995 9994 9992 9990 9988 9986 9984 9981 9980 9978 9974 9971 9968 9965 9963 9962 9960 9958 9958 9958 9958 9959 9960 9960 9960 9962 9964 9965 9968
10314 10308 10301 10295 10289 10283 10277 10271 10264 10258 10252 10245 10239 10233 10226 10219 10212 10205 10198 10191 10183 10175 10167 10159 10149 10140 10131 10122 10115 10108 10099 10090 10082 10076 10070 10064 10059 10054 10048 10044 10039 10036 10032 10027 10022 10019 10014 10010 10007 10005 10001 9996 9993 9991 9988 9986 9985 9983 9981 9979 9976 9974 9971 9969 9967 9965 9963 9960 9957 9954 9952 9951 9949 9947 9946 9945 9946 9946 9947 9947 9947 9949 9950 9951 9952
10298 10292 10286 10280 10274 10268 10262 10256 10250 10244 10238 10231 10225 10219 10212 10205 10198 10191 10184 10176 10167 10160 10152 10144 10135 10126 10117 10108 10101 10095 10087 10077 10069 10062 10057 10052 10047 10041 10036 10032 10028 10024 10020 10016 10012 10008 10003 9999 9996 9994 9990 9986 9983 9980 9977 9975 9974 9973 9971 9969 9966 9963 9960 9957 9955 9953 9951 9949 9946 9943 9941 9939 9938 9936 9935 9933 9934 9934 9934 9934 9935 9936 9938 9938 9938
10283 10277 10271 10265 10260 10254 10247 10241 10235 10229 10223 10217 10210 10204 10197 10190 10183 10176 10169 10160 10152 10144 10137 10130 10122 10112 10103 10095 10087 10081 10074 10065 10057 10049 10043 10039 10034 10028 10023 10019 10015 10012 10008 10004 10001 9996 9991 9989 9986 9982 9979 9976 9973 9970 9967 9965 9963 9962 9960 9958 9956 9953 9950 9947 9944 9942 9940 9938 9936 9933 9931 9929 9927 9926 9924 9922 9922 9922 9921 9921 9922 9923 9925 9926 9925
10267 10262 10256 10250 10245 10238 10232 10226 10220 10214 10207 10201 10194 10188 10181 10174 10167 10160 10152 10143 10135 10128 10121 10114 10107 10098 10088 10080 10073 10066 10059 10052 10044 10036 10030 10025 10020 10015 10011 10006 10002 9999 9995 9992 9989 9984 9980 9978 9975 9971 9969 9966 9963 9960 9958 9955 9953 9951 9950 9948 9945 9943 9940 9937 9934 9932 9929 9927 9924 9922 9920 9918 9916 9915 9914 9912 9911 9911 9910 9909 9909 9910 9912 9913 9913
10252 10246 10240 10234 10228 10222 10216 10210 10204 10198 10191 10185 10178 10171 10165 10158 10151 10144 10136 10127 10119 10112 10105 10098 10090 10081 10073 10065 10058 10051 10045 10038 10031 10024 10018 10012 10007 10003 9998 9994 9990 9987 9983 9980 9976 9972 9969 9967 9962 9959 9957 9955 9951 9948 9946 9944 9943 9941 9939 9937 9935 9932 9930 9927 9924 9922 9919 9916 9913 9910 9908 9907 9905 9904 9902 9901 9901 9901 9899 9898 9898 9898 9899 9900 9901
10235 10230 10224 10218 10212 10206 10200 10194 10188 10182 10175 10169 10162 10154 10148 10142 10135 10128 10120 10113 10105 10098 10090 10083 10075 10067 10059 10052 10044 10038 10032 10026 10018 10012 10006 10001 9996 9992 9987 9983 9979 9975 9972 9968 9964 9960 9959 9956 9951 9947 9946 9943 9939 9936 9934 9932 9930 9929 9928 9926 9924 9921 9919 9916 9914 9911 9909 9907 9904 9900 9897 9895 9894 9893 9891 9890 9890 9890 9890 9888 9887 9887 9888 9888 9889
10218 10212 10207 10201 10196 10191 10185 10178 10172 10166 10160 10153 10146 10139 10131 10125 10119 10112 10104 10097 10090 10083 10076 10069 10061 10053 10045 10039 10033 10026 10021 10014 10007 10001 9995 9990 9985 9981 9977 9972 9968 9965 9962 9957 9953 9950 9949 9945 9940 9937 9935 9932 9928 9925 9923 9920 9918 9917 9916 9915 9913 9911 9908 9906 9903 9901 9899 9897 9894 9891 9888 9885 9883 9882 9880 9879 9878 9879 9880 9879 9878 9877 9877 9877 9877
10202 10196 10191 10186 10181 10176 10169 10163 10157 10150 10145 10138 10131 10123 10115 10108 10101 10095 10087 10080 10073 10067 10060 10053 10047 10040 10032 10026 10020 10013 10008 10002 9997 9990 9984 9979 9974 9970 9966 9962 9958 9954 9951 9946 9943 9941 9939 9934 9930 9927 9924 9922 9918 9915 9912 9910 9908 9906 9904 9903 9902 9901 9898 9895 9893 9891 9888 9887 9884 9882 9879 9876 9873 9871 9870 9868 9867 9867 9868 9869 9868 9868 9868 9867 9867
10185 10180 10175 10170 10165 10159 10153 10147 10141 10134 10128 10122 10114 10107 10099 10091 10084 10077 10070 10063 10056 10049 10043 10037 10031 10025 10019 10013 10006 10000 9994 9989 9985 9979 9973 9968 9964 9960 9956 9952 9948 9944 9940 9935 9933 9931 9928 9924 9920 9917 9915 9912 9909 9905 9902 9900 9897 9896 9894 9892 9891 9890 9888 9885 9883 9881 9879 9877 9875 9872 9870 9867 9864 9862 9860 9858 9856 9855 9855 9857 9857 9858 9858 9858 9857
10166 10162 10157 10152 10147 10141 10135 10129 10123 10117 10111 10104 10097 10090 10082 10075 10067 10060 10053 10046 10040 10033 10026 10020 10013 10008 10004 9999 9993 9986 9980 9976 9972 9967 9961 9956 9952 9948 9945 9942 9938 9933 9929 9925 9922 9920 9917 9913 9909 9906 9904 9902 9899 9895 9892 9890 9887 9886 9885 9882 9880 9879 9878 9876 9873 9871 9869 9867 9865 9863 9861 9858 9855 9853 9850 9849 9847 9845 9844 9845 9846 9847 9848 9848 9848
10148 10143 10138 10133 10128 10123 10117 10111 10104 10098 10092 10086 10080 10073 10065 10058 10051 10043 10036 10030 10024 10017 10011 10004 9997 9991 9986 9982 9978 9972 9967 9963 9960 9955 9950 9945 9940 9936 9933 9930 9925 9920 9917 9914 9911 9908 9906 9903 9899 9896 9894 9892 9889 9885 9882 9879 9877 9876 9875 9872 9870 9868 9867 9865 9863 9861 9859 9857 9856 9854 9851 9849 9846 9843 9841 9839 9838 9836 9835 9835 9836 9837 9837 9837 9837
10131 10126 10120 10115 10110 10105 10099 10093 10086 10080 10074 10068 10062 10055 10048 10041 10034 10027 10021 10015 10008 10002 9995 9988 9982 9975 9970 9966 9962 9958 9954 9951 9947 9943 9939 9934 9929 9925 9922 9919 9914 9908 9905 9903 9900 9897 9895 9892 9889 9886 9883 9881 9878 9875 9872 9869 9867 9866 9864 9862 9860 9858 9857 9855 9853 9851 9849 9848 9846 9844 9842 9839 9837 9834 9831 9829 9828 9827 9827 9826 9827 9828 9828 9827 9826
10114 10109 10103 10097 10092 10087 10081 10075 10069 10062 10056 10050 10043 10037 10030 10024 10017 10010 10004 9998 9992 9986 9980 9973 9967 9961 9956 9951 9947 9944 9941 9938 9934 9930 9926 9921 9917 9914 9912 9909 9904 9899 9895 9892 9890 9887 9883 9880 9878 9876 9873 9870 9867 9865 9862 9858 9856 9855 9854 9852 9850 9849 9847 9845 9843 9841 9840 9838 9837 9835 9833 9830 9827 9825 9822 9820 9819 9819 9818 9817 9818 9819 9820 9819 9817
10097 10092 10086 10080 10075 10070 10064 10058 10052 10045 10039 10032 10026 10019 10013 10007 10000 9994 9988 9982 9976 9971 9965 9959 9953 9948 9942 9937 9934 9932 9929 9926 9922 9919 9914 9910 9906 9903 9901 9897 9893 9889 9885 9883 9880 9877 9872 9869 9867 9865 9862 9860 9857 9854 9851 9848 9846 9845 9843 9841 9840 9839 9837 9834 9833 9831 9830 9829 9828 9825 9823 9821 9818 9816 9813 9811 9810 9810 9810 9809 9809 9809 9811 9811 9809
10080 10075 10069 10063 10058 10053 10047 10041 10035 10029 10022 10016 10009 10003 9997 9991 9985 9979 9973 9967 9961 9956 9950 9945 9940 9935 9929 9925 9921 9920 9917 9914 9911 9906 9902 9898 9894 9891 9888 9885 9882 9878 9875 9872 9870 9866 9862 9859 9857 9855 9852 9849 9847 9844 9841 9838 9836 9834 9833 9831 9830 9829 9827 9825 9823 9821 9820 9819 9818 9816 9814 9811 9809 9807 9805 9803 9802 9801 9801 9801 9800 9800 9801 9802 9800
10063 10058 10052 10047 10041 10036 10030 10024 10018 10012 10006 10000 9993 9987 9981 9975 9969 9964 9958 9953 9947 9942 9937 9931 9926 9921 9916 9912 9909 9907 9905 9902 9898 9894 9890 9886 9882 9879 9876 9873 9870 9866 9864 9862 9859 9855 9851 9848 9847 9844 9841 9839 9837 9834 9831 9828 9826 9824 9822 9821 9820 9819 9817 9815 9813 9811 9810 9809 9808 9807 9805 9802 9800 9799 9797 9795 9794 9793 9792 9792 9792 9792 9792 9792 9792
10045 10040 10035 10030 10025 10019 10013 10008 10002 9996 9990 9984 9978 9972 9965 9960 9954 9949 9944 9939 9934 9929 9924 9919 9913 9909 9904 9900 9897 9895 9894 9891 9886 9882 9878 9874 9870 9867 9865 9862 9859 9856 9853 9851 9848 9844 9841 9838 9836 9834 9831 9829 9827 9824 9821 9818 9815 9813 9812 9811 9810 9809 9807 9806 9804 9802 9801 9800 9799 9797 9795 9793 9791 9790 9788 9787 9786 9785 9784 9783 9783 9783 9784 9784 9783
10027 10023 10019 10014 10008 10003 9997 9992 9986 9980 9974 9968 9962 9956 9950 9945 9939 9934 9929 9925 9921 9916 9911 9906 9901 9896 9892 9888 9884 9883 9882 9880 9875 9870 9866 9862 9858 9856 9853 9850 9848 9845 9842 9840 9836 9832 9830 9827 9825 9823 9821 9819 9817 9814 9812 9809 9806 9803 9801 9801 9801 9799 9798 9797 9795 9793 9791 9790 9789 9788 9786 9785 9783 9781 9779 9779 9778 9777 9776 9775 9773 9774 9775 9775 9775
10010 10006 10001 9996 9991 9986 9981 9975 9970 9964 9958 9952 9947 9941 9935 9930 9925 9920 9915 9911 9907 9903 9898 9894 9889 9884 9880 9876 9873 9871 9869 9867 9863 9859 9854 9850 9847 9844 9841 9838 9836 9834 9832 9829 9825 9821 9818 9816 9813 9812 9811 9809 9807 9805 9802 9799 9796 9794 9792 9791 9790 9789 9788 9787 9786 9784 9782 9781 9780 9779 9778 9776 9775 9772 9771 9770 9769 9769 9768 9767 9765 9765 9766 9766 9766
9993 9989 9984 9979 9975 9970 9964 9959 9954 9948 9942 9937 9931 9926 9921 9916 9911 9906 9902 9898 9893 9889 9885 9881 9876 9872 9868 9864 9861 9859 9856 9854 9851 9848 9844 9839 9835 9832 9829 9827 9824 9822 9820 9818 9814 9811 9808 9804 9801 9800 9800 9799 9797 9796 9793 9790 9787 9785 9783 9781 9780 9779 9779 9778 9776 9775 9774 9772 9771 9770 9769 9768 9766 9764 9763 9761 9760 9760 9760 9759 9757 9757 9757 9757 9758
9976 9972 9967 9962 9958 9952 9947 9942 9937 9932 9927 9922 9916 9912 9907 9903 9898 9893 9889 9884 9880 9876 9872 9868 9864 9860 9856 9852 9849 9846 9843 9840 9838 9836 9833 9829 9824 9820 9817 9816 9814 9811 9808 9805 9802 9799 9797 9794 9791 9790 9789 9788 9787 9786 9783 9780 9778 9775 9774 9773 9771 9770 9770 9768 9767 9766 9765 9763 9762 9761 9761 9759 9758 9756 9754 9753 9752 9751 9751 9751 9749 9748 9748 9749 9750
9960 9955 9950 9945 9940 9935 9930 9925 9921 9916 9912 9907 9902 9898 9893 9889 9884 9880 9875 9871 9867 9863 9859 9855 9852 9848 9844 9840 9836 9833 9830 9827 9824 9822 9820 9817 9814 9809 9805 9803 9803 9800 9797 9794 9791 9788 9785 9783 9781 9779 9778 9777 9777 9775 9773 9770 9768 9766 9765 9764 9762 9761 9760 9759 9758 9757 9756 9754 9753 9753 9752 9751 9750 9748 9746 9745 9744 9743 9743 9743 9742 9740 9740 9740 9741
9943 9938 9933 9928 9923 9918 9914 9910 9905 9901 9897 9892 9888 9884 9879 9875 9871 9866 9862 9858 9854 9850 9846 9843 9839 9836 9833 9829 9825 9821 9818 9815 9812 9809 9806 9804 9802 9799 9794 9791 9790 9788 9786 9783 9780 9777 9774 9772 9770 9769 9767 9767 9767 9765 9763 9761 9758 9756 9755 9754 9753 9752 9751 9750 9749 9748 9747 9745 9744 9744 9743 9743 9742 9740 9739 9737 9736 9736 9735 9734 9734 9733 9732 9731 9732
9925 9921 9916 9911 9907 9903 9898 9894 9890 9886 9881 9877 9873 9869 9865 9861 9857 9853 9849 9845 9841 9837 9834 9830 9827 9824 9820 9817 9813 9810 9807 9803 9800 9797 9795 9792 9790 9787 9784 9781 9778 9776 9774 9772 9770 9768 9765 9762 9760 9758 9756 9756 9756 9756 9754 9751 9749 9747 9746 9745 9744 9743 9742 9740 9740 9739 9738 9737 9736 9735 9735 9734 9733 9732 9731 9730 9729 9728 9728 9727 9726 9726 9725 9724 9724
9908 9904 9900 9896 9892 9888 9884 9879 9875 9871 9866 9862 9858 9855 9851 9847 9843 9839 9836 9832 9828 9825 9821 9818 9814 9811 9808 9805 9802 9799 9796 9792 9789 9786 9783 9781 9779 9776 9773 9770 9768 9766 9764 9762 9760 9758 9756 9752 9750 9748 9746 9746 9746 9746 9744 9742 9740 9738 9737 9736 9735 9734 9732 9732 9731 9730 9729 9729 9728 9727 9726 9726 9725 9725 9724 9723 9721 9721 9720 9720 9719 9718 9718 9717 9716
9892 9888 9885 9881 9877 9873 9869 9865 9861 9856 9852 9848 9844 9841 9837 9833 9829 9826 9822 9819 9816 9813 9809 9805 9802 9799 9796 9793 9791 9788 9785 9781 9778 9775 9772 9770 9767 9765 9762 9759 9757 9755 9753 9751 9750 9748 9746 9743 9741 9738 9737 9737 9737 9736 9734 9732 9731 9729 9728 9727 9726 9725 9724 9723 9722 9721 9720 9720 9720 9719 9718 9717 9717 9717 9716 9715 9714 9714 9713 9713 9712 9712 9711 9710 9710
9876 9873 9869 9866 9862 9859 9855 9851 9847 9842 9838 9834 9830 9826 9823 9820 9816 9813 9809 9806 9803 9800 9797 9793 9790 9787 9784 9782 9779 9776 9773 9771 9767 9764 9762 9759 9756 9754 9752 9749 9747 9745 9743 9741 9740 9738 9735 9733 9731 9729 9728 9728 9727 9726 9725 9724 9722 9720 9719 9718 9717 9716 9715 9714 9713 9713 9712 9712 9712 9711 9710 9709 9709 9709 9709 9707 9707 9707 9706 9706 9705 9705 9704 9704 9703
9862 9859 9855 9851 9847 9844 9839 9836 9832 9828 9824 9820 9817 9813 9810 9806 9803 9800 9797 9794 9791 9788 9785 9782 9779 9776 9773 9770 9767 9764 9761 9759 9756 9754 9751 9749 9746 9744 9742 9739 9737 9735 9733 9731 9730 9728 9725 9724 9722 9720 9719 9718 9717 9716 9716 9715 9713 9712 9711 9709 9708 9707 9707 9706 9705 9704 9704 9704 9704 9703 9702 9701 9701 9701 9701 9700 9699 9699 9699 9699 9698 9698 9697 9697 9697